This demonstration page uses our WeatherBlox Daily Observations layout. Learn more.

Left ArrowRight Arrow

39.08367, -84.50855

Hourly Observations for April 22, 2017

Temp ( °F °C ) Dew Point ( °F °C ) Humidity (%) Winds ( mph kmh ) Pressure ( in mb ) Visibility ( mi km ) Precip ( " mm )
12:53 am 00:53 Cloudy with Light Rain 50 10 48 8.9 93 93 N 12 19 30.04 1017 7 11.26538 0.08 2.032
1:53 am 01:53 Cloudy 49 9.4 47 8.3 93 93 ENE 3 6 30.02 1017 10 16.0934 0.02 0.508
2:53 am 02:53 Cloudy 49 9.4 47 8.3 93 93 NNE 6 9 30.01 1016 10 16.0934 0.01 0.254
3:53 am 03:53 Partly Cloudy 48 8.9 47 8.3 96 96 N 9 15 30 1016 10 16.0934 0 0
4:53 am 04:53 Mostly Cloudy 48 8.9 45 7.2 89 89 NE 9 15 30 1016 10 16.0934 0 0
5:53 am 05:53 Cloudy 48 8.9 43 6.1 83 83 NE 8 13 30.04 1017 10 16.0934 0 0
6:53 am 06:53 Cloudy 48 8.9 43 6.1 83 83 NNE 9 15 30.04 1017 10 16.0934 0 0
7:53 am 07:53 Sunny 48 8.9 43 6.1 83 83 NNE 9 15 30.06 1018 10 16.0934 0 0
8:53 am 08:53 Mostly Sunny 48 8.9 43 6.1 83 83 NE 14 22 30.03 1017 10 16.0934 0 0
9:53 am 09:53 Mostly Cloudy 49 9.4 43 6.1 80 80 NNE 12 19 30.05 1018 10 16.0934 0 0
10:53 am 10:53 Cloudy 50 10 41 5 71 71 NE 14 22 30.07 1018 10 16.0934 0 0
11:53 am 11:53 Cloudy 50 10 42 5.6 74 74 NNE 15 24 30.09 1019 10 16.0934 0 0
12:53 pm 12:53 Mostly Cloudy 50 10 41 5 71 71 NNE 16 26 30.09 1019 10 16.0934 0 0.0254
1:53 pm 13:53 Cloudy 51 10.6 41 5 69 69 NE 12 19 30.09 1019 10 16.0934 0 0
2:53 pm 14:53 Mostly Cloudy 52 11.1 41 5 66 66 ENE 10 17 30.07 1018 10 16.0934 0 0
3:53 pm 15:53 Cloudy 54 12.2 42 5.6 64 64 NE 10 17 30.06 1018 10 16.0934 0 0
4:53 pm 16:53 Cloudy 54 12.2 42 5.6 64 64 NE 9 15 30.04 1017 10 16.0934 0 0
5:53 pm 17:53 Mostly Cloudy 54 12.2 41 5 62 62 ENE 8 13 30.04 1017 10 16.0934 0 0
6:53 pm 18:53 Mostly Cloudy 55 12.8 42 5.6 62 62 NNE 13 20 30.02 1017 10 16.0934 0 0
7:53 pm 19:53 Sunny 54 12.2 39 3.9 57 57 NE 12 19 30.04 1017 10 16.0934 0 0
8:53 pm 20:53 Clear 51 10.6 37 2.8 59 59 NNE 8 13 30.04 1017 10 16.0934 0 0
9:53 pm 21:53 Clear 48 8.9 38 3.3 68 68 NE 5 7 30.07 1018 10 16.0934 0 0
10:53 pm 22:53 Clear 47 8.3 38 3.3 71 71 NE 8 13 30.09 1019 10 16.0934 0 0
11:53 pm 23:53 Clear 45 7.2 38 3.3 77 77 NNE 7 11 30.09 1019 10 16.0934 0 0

Powered by AerisWeather